Regional Weather Roundup
Issued by NWS

Home | Current Version | Previous Version | Text Only | Print | Product List | Glossary Off
Versions: 1 2 3 4 5 6 7 8 9 10 11 12 13 14 15 16 17 18 19 20 21 22 23 24 25 26 27 28 29 30 31 32 33 34 35 36 37 38 39 40 41 42 43 44 45 46 47 48 49 50

000
ASUS43 KIND 102359
RWRIN

WEATHER ROUNDUP FOR INDIANA
NATIONAL WEATHER SERVICE INDIANAPOLIS IN
700 PM EST WED FEB 10 2016

NOTE: "FAIR" INDICATES FEW OR NO CLOUDS BELOW 12,000 FEET WITH NO
SIGNIFICANT WEATHER AND/OR OBSTRUCTIONS TO VISIBILITY.

* - STATION DOES NOT REPORT WEATHER SUCH AS PRECIPITATION OR FOG.

+ - STATION NOT QUALITY CONTROLLED BY THE NATIONAL WEATHER SERVICE.
    USE DATA WITH CAUTION...ESPECIALLY DEWPOINT AND RELATIVE
    HUMIDITY OBSERVATIONS.

INZ001>003-010>013-019-020-110100-
NORTHWEST INDIANA

CITY           SKY/WX    TMP DP  RH WIND       PRES   REMARKS
GARY /AIRPORT/ MOCLDY    18   1  49 W12       30.09R WCI   5
MONTICELLO +   CLOUDY    17   3  55 W8        30.08R WCI   6
6HR MIN TEMP:  15; 6HR MAX TEMP:  17;

RENSSELAER +   MOCLDY    18   5  57 NW5       30.09R WCI  11

$$

LMZ046-743>745-110100-
SOUTHERN LAKE MICHIGAN

STATION/POSITION TIME  TEMP    WIND        PRES    WAVE
                       AIR SEA DIR/SP/G            HT
                 (UTC) (F)     (DEG/KT/KT) (MB)    (FT)
BURNS HARBOR     2300   18     320/ 11/ 19 1018.3R
MICHIGAN CITY    2300   16     300/ 11/ 16   N/A

$$

INZ004-005-014>016-021>024-110100-
NORTH CENTRAL INDIANA

CITY           SKY/WX    TMP DP  RH WIND       PRES   REMARKS
GOSHEN         CLOUDY    15   6  67 W18       30.03R WCI  -2
6HR MIN TEMP:  14; 6HR MAX TEMP:  18; 6HR PCP:  0.01;

SOUTH BEND     LGT SNOW  13  10  88 W9        30.05R VSB 1   WCI   1
6HR MIN TEMP:  13; 6HR MAX TEMP:  17; 6HR PCP:  0.02;


$$

INZ006>009-017-018-025>027-110100-
NORTHEAST INDIANA

CITY           SKY/WX    TMP DP  RH WIND       PRES   REMARKS
ANGOLA *+      CLOUDY    16  12  86 W9        29.95R WCI   4
FORT WAYNE     FLURRIES  18   8  65 W17G28    30.03R WCI   3
6HR MIN TEMP:  18; 6HR MAX TEMP:  24; 6HR PCP: TRACE;


$$

INZ028-029-035-036-043>045-051>053-110100-
WEST CENTRAL INDIANA

CITY           SKY/WX    TMP DP  RH WIND       PRES   REMARKS
GREENCASTLE +  PTCLDY    18   3  53 W5        30.10R WCI  11
LAFAYETTE      PTCLDY    15   5  64 W6        30.10R WCI   6
6HR MIN TEMP:  14; 6HR MAX TEMP:  16; 6HR PCP: TRACE;

TERRE HAUTE    CLOUDY    20   8  60 W10       30.13R WCI   9
6HR MIN TEMP:  16; 6HR MAX TEMP:  20;


$$

INZ030>032-037>040-046>048-054>057-064-065-110100-
CENTRAL INDIANA

CITY           SKY/WX    TMP DP  RH WIND       PRES   REMARKS
FRANKFORT +    PTCLDY    15   1  54 W9        30.10R WCI   3
6HR MIN TEMP:  15; 6HR MAX TEMP:  17;

INDIANAPOLIS   CLOUDY    16   5  62 W10       30.09R WCI   4
6HR MIN TEMP:  14; 6HR MAX TEMP:  18;

-EAGLE CREEK   CLOUDY    16   6  65 W8        30.09R WCI   5
6HR MIN TEMP:  13; 6HR MAX TEMP:  17; 6HR PCP: TRACE;

KOKOMO *+      CLOUDY    16   3  57 NW13      30.07R WCI   2
6HR MIN TEMP:  16; 6HR MAX TEMP:  18;

MT COMFORT *+  PTCLDY    14   5  67 W12       30.09R WCI   0
SHELBYVILLE    CLOUDY    17   5  59 W16       30.09R WCI   2
6HR MIN TEMP:  16; 6HR MAX TEMP:  19;


$$

INZ033-034-041-042-049-050-058-059-110100-
EAST CENTRAL INDIANA

CITY           SKY/WX    TMP DP  RH WIND       PRES   REMARKS
MUNCIE         CLOUDY    15   5  64 W12       30.06R WCI   2
6HR MIN TEMP:  15; 6HR MAX TEMP:  18; 6HR PCP: TRACE;


$$

INZ060-061-067>069-081>083-085>088-110100-
SOUTHWEST INDIANA

CITY           SKY/WX    TMP DP  RH WIND       PRES   REMARKS
EVANSVILLE     LGT SNOW  24  16  71 W9        30.18R WCI  14
6HR MIN TEMP:  22; 6HR MAX TEMP:  25; 6HR PCP: TRACE;

HUNTINGBURG *+ CLOUDY    21  10  63 W13       30.15R WCI   9
6HR MIN TEMP:  19; 6HR MAX TEMP:  21;


$$

INZ062-063-066-070>080-084-089>092-110100-
SOUTH CENTRAL AND SOUTHEAST INDIANA

CITY           SKY/WX    TMP DP  RH WIND       PRES   REMARKS
BLOOMINGTON    CLOUDY    18   6  59 W6        30.10R WCI  10
6HR MIN TEMP:  16; 6HR MAX TEMP:  19;

MADISON *+     PTCLDY    19   5  53 W5        30.12R WCI  13

$$




USA.gov is the U.S. government's official web portal to all federal, state and local government web resources and services.